Year,Month,Day,Hour,Minute,Value (Times are PST for insolation in W/m^2)
2013,08,17,08,40,185.00
2013,08,17,08,41,185.00
2013,08,17,08,42,192.00
2013,08,17,08,43,206.20
2013,08,17,08,44,213.20
2013,08,17,08,45,255.80
2013,08,17,08,46,259.00
2013,08,17,08,47,270.00
2013,08,17,08,48,228.60
2013,08,17,08,49,214.00
2013,08,17,08,50,204.60
2013,08,17,08,51,247.00
2013,08,17,08,52,218.50
2013,08,17,08,53,192.50
2013,08,17,08,54,186.30
2013,08,17,08,55,182.60
2013,08,17,08,56,168.30
2013,08,17,08,57,164.50
2013,08,17,08,58,156.30
2013,08,17,08,59,146.20
2013,08,17,09,00,139.80
2013,08,17,09,01,131.10
2013,08,17,09,02,121.00
2013,08,17,09,03,110.20
2013,08,17,09,04,103.70
2013,08,17,09,05,99.60
2013,08,17,09,06,97.20
2013,08,17,09,07,97.80
2013,08,17,09,08,100.10
2013,08,17,09,09,102.40
2013,08,17,09,10,105.10
2013,08,17,09,11,110.50
2013,08,17,09,12,119.40
2013,08,17,09,13,127.90
2013,08,17,09,14,137.60
2013,08,17,09,15,152.20
2013,08,17,09,16,172.40
2013,08,17,09,17,190.60
2013,08,17,09,18,202.80
2013,08,17,09,19,210.60
2013,08,17,09,20,218.90
2013,08,17,09,21,230.40
2013,08,17,09,22,231.40
2013,08,17,09,23,243.00
2013,08,17,09,24,218.90
2013,08,17,09,25,168.00
2013,08,17,09,26,157.40
2013,08,17,09,27,152.10
2013,08,17,09,28,151.00
2013,08,17,09,29,153.10
2013,08,17,09,30,155.00
2013,08,17,09,31,155.00
2013,08,17,09,32,154.00
2013,08,17,09,33,150.50
2013,08,17,09,34,149.00
2013,08,17,09,35,149.00
2013,08,17,09,36,163.40
2013,08,17,09,37,176.30
2013,08,17,09,38,187.80
2013,08,17,09,39,197.90
2013,08,17,09,40,248.40
2013,08,17,09,41,249.30
2013,08,17,09,42,239.00
2013,08,17,09,43,252.60
2013,08,17,09,44,276.70
2013,08,17,09,45,292.70
2013,08,17,09,46,255.00
2013,08,17,09,47,367.80
2013,08,17,09,48,443.00
2013,08,17,09,49,443.00
2013,08,17,09,50,420.10
2013,08,17,09,51,209.80
2013,08,17,09,52,205.40
2013,08,17,09,53,235.20
2013,08,17,09,54,263.00
2013,08,17,09,55,324.10
2013,08,17,09,56,260.50
2013,08,17,09,57,239.10
2013,08,17,09,58,193.80
2013,08,17,09,59,174.00
2013,08,17,10,00,158.70
2013,08,17,10,01,142.00
2013,08,17,10,02,142.00
2013,08,17,10,03,153.10
2013,08,17,10,04,170.80
2013,08,17,10,05,191.50
2013,08,17,10,06,203.40
2013,08,17,10,07,206.00
2013,08,17,10,08,206.00
2013,08,17,10,09,201.80
2013,08,17,10,10,201.70
2013,08,17,10,11,202.50
2013,08,17,10,12,206.80
2013,08,17,10,13,205.30
2013,08,17,10,14,202.00
2013,08,17,10,15,197.00
2013,08,17,10,16,192.80
2013,08,17,10,17,192.90
2013,08,17,10,18,201.10
2013,08,17,10,19,213.20
2013,08,17,10,20,221.80
2013,08,17,10,21,227.50
2013,08,17,10,22,237.10
2013,08,17,10,23,241.00
2013,08,17,10,24,261.40
2013,08,17,10,25,269.30
2013,08,17,10,26,275.00
2013,08,17,10,27,294.70
2013,08,17,10,28,314.90
2013,08,17,10,29,325.00
2013,08,17,10,30,327.00
2013,08,17,10,31,327.00
2013,08,17,10,32,296.30
2013,08,17,10,33,291.00
2013,08,17,10,34,288.00
2013,08,17,10,35,276.00
2013,08,17,10,36,248.20
2013,08,17,10,37,223.20
2013,08,17,10,38,204.40
2013,08,17,10,39,199.60
2013,08,17,10,40,205.10
2013,08,17,10,41,210.40
2013,08,17,10,42,216.50
2013,08,17,10,43,226.30
2013,08,17,10,44,251.00
2013,08,17,10,45,283.50
2013,08,17,10,46,304.90
2013,08,17,10,47,302.80
2013,08,17,10,48,303.80
2013,08,17,10,49,322.80
2013,08,17,10,50,348.60
2013,08,17,10,51,372.80
2013,08,17,10,52,465.70
2013,08,17,10,53,476.00
2013,08,17,10,54,466.10
2013,08,17,10,55,429.00
2013,08,17,10,56,512.80
2013,08,17,10,57,606.00
2013,08,17,10,58,664.50
2013,08,17,10,59,684.00
2013,08,17,11,00,409.10
2013,08,17,11,01,366.40
2013,08,17,11,02,344.30
2013,08,17,11,03,348.00
2013,08,17,11,04,353.00
2013,08,17,11,05,358.20
2013,08,17,11,06,380.60
2013,08,17,11,07,393.40
2013,08,17,11,08,476.80
2013,08,17,11,09,451.20
2013,08,17,11,10,461.00
2013,08,17,11,11,461.00
2013,08,17,11,12,461.00
2013,08,17,11,13,540.00
2013,08,17,11,14,476.00
2013,08,17,11,15,476.00
2013,08,17,11,16,450.50
2013,08,17,11,17,403.00
2013,08,17,11,18,420.70
2013,08,17,11,19,431.00
2013,08,17,11,20,381.70
2013,08,17,11,21,410.70
2013,08,17,11,22,426.20
2013,08,17,11,23,475.00
2013,08,17,11,24,475.00
2013,08,17,11,25,668.80
2013,08,17,11,26,741.00
2013,08,17,11,27,722.00
2013,08,17,11,28,722.00
2013,08,17,11,29,635.50
2013,08,17,11,30,356.40
2013,08,17,11,31,327.00
2013,08,17,11,32,327.00
2013,08,17,11,33,362.20
2013,08,17,11,34,379.10
2013,08,17,11,35,403.10
2013,08,17,11,36,414.10
2013,08,17,11,37,448.90
2013,08,17,11,38,435.00
2013,08,17,11,39,431.20
2013,08,17,11,40,494.80
2013,08,17,11,41,483.70
2013,08,17,11,42,480.00
2013,08,17,11,43,524.50
2013,08,17,11,44,629.00
2013,08,17,11,45,592.00
2013,08,17,11,46,592.00
2013,08,17,11,47,505.00
2013,08,17,11,48,476.00
2013,08,17,11,49,476.00
2013,08,17,11,50,453.80
2013,08,17,11,51,376.70
2013,08,17,11,52,351.00
2013,08,17,11,53,348.40
2013,08,17,11,54,347.50
2013,08,17,11,55,371.20
2013,08,17,11,56,404.00
2013,08,17,11,57,401.00
2013,08,17,11,58,390.20
2013,08,17,11,59,394.00
2013,08,17,12,00,415.50
2013,08,17,12,01,426.20
2013,08,17,12,02,427.00
2013,08,17,12,03,506.90
2013,08,17,12,04,610.20
2013,08,17,12,05,671.50
2013,08,17,12,06,604.50
2013,08,17,12,07,521.90
2013,08,17,12,08,445.50
2013,08,17,12,09,440.30
2013,08,17,12,10,425.50
2013,08,17,12,11,373.20
2013,08,17,12,12,358.90
2013,08,17,12,13,349.20
2013,08,17,12,14,336.00
2013,08,17,12,15,311.50
2013,08,17,12,16,289.90
2013,08,17,12,17,244.40
2013,08,17,12,18,227.20
2013,08,17,12,19,214.90
2013,08,17,12,20,213.50
2013,08,17,12,21,217.70
2013,08,17,12,22,225.50
2013,08,17,12,23,237.20
2013,08,17,12,24,248.60
2013,08,17,12,25,263.80
2013,08,17,12,26,309.00
2013,08,17,12,27,327.00
2013,08,17,12,28,287.40
2013,08,17,12,29,277.20
2013,08,17,12,30,272.60
2013,08,17,12,31,268.60
2013,08,17,12,32,276.90
2013,08,17,12,33,273.00
2013,08,17,12,34,271.00
2013,08,17,12,35,283.40
2013,08,17,12,36,304.20
2013,08,17,12,37,320.60
2013,08,17,12,38,305.00
2013,08,17,12,39,278.00
2013,08,17,12,40,275.90
2013,08,17,12,41,278.80
2013,08,17,12,42,300.60
2013,08,17,12,43,331.10
2013,08,17,12,44,401.90
2013,08,17,12,45,403.60
2013,08,17,12,46,360.10
2013,08,17,12,47,353.00
2013,08,17,12,48,353.00
2013,08,17,12,49,361.40
2013,08,17,12,50,352.80
2013,08,17,12,51,297.60
2013,08,17,12,52,248.10
2013,08,17,12,53,219.20
2013,08,17,12,54,198.70
2013,08,17,12,55,187.90
2013,08,17,12,56,191.40
2013,08,17,12,57,209.20
2013,08,17,12,58,241.00
2013,08,17,12,59,289.60
2013,08,17,13,00,335.80
2013,08,17,13,01,400.50
2013,08,17,13,02,452.40
2013,08,17,13,03,457.60
2013,08,17,13,04,476.50
2013,08,17,13,05,467.40
2013,08,17,13,06,534.50
2013,08,17,13,07,502.80
2013,08,17,13,08,444.30
2013,08,17,13,09,441.00
2013,08,17,13,10,439.00
2013,08,17,13,11,430.20
2013,08,17,13,12,412.50
2013,08,17,13,13,383.60
2013,08,17,13,14,368.00
2013,08,17,13,15,351.00
2013,08,17,13,16,328.00
2013,08,17,13,17,312.40
2013,08,17,13,18,308.00
2013,08,17,13,19,285.00
2013,08,17,13,20,270.10
2013,08,17,13,21,262.00
2013,08,17,13,22,253.50
2013,08,17,13,23,236.60
2013,08,17,13,24,231.50
2013,08,17,13,25,226.20
2013,08,17,13,26,220.50
2013,08,17,13,27,216.20
2013,08,17,13,28,217.20
2013,08,17,13,29,221.70
2013,08,17,13,30,224.00
2013,08,17,13,31,222.60
2013,08,17,13,32,220.30
2013,08,17,13,33,218.30
2013,08,17,13,34,220.40
2013,08,17,13,35,224.60
2013,08,17,13,36,231.80
2013,08,17,13,37,240.50
2013,08,17,13,38,246.40
2013,08,17,13,39,248.00
2013,08,17,13,40,248.00
2013,08,17,13,41,247.60
2013,08,17,13,42,244.50
2013,08,17,13,43,248.60
2013,08,17,13,44,260.20
2013,08,17,13,45,282.80
2013,08,17,13,46,308.00
2013,08,17,13,47,333.70
2013,08,17,13,48,359.70
2013,08,17,13,49,370.80
2013,08,17,13,50,394.10
2013,08,17,13,51,412.00
2013,08,17,13,52,414.20
2013,08,17,13,53,417.20
2013,08,17,13,54,417.10
2013,08,17,13,55,444.00
2013,08,17,13,56,388.00
2013,08,17,13,57,384.20
2013,08,17,13,58,424.70
2013,08,17,13,59,432.20
2013,08,17,14,00,402.50
2013,08,17,14,01,405.00
2013,08,17,14,02,413.00
2013,08,17,14,03,419.20
2013,08,17,14,04,448.40
2013,08,17,14,05,445.50
2013,08,17,14,06,434.60
2013,08,17,14,07,452.50
2013,08,17,14,08,417.00
2013,08,17,14,09,374.10
2013,08,17,14,10,354.70
2013,08,17,14,11,348.50
2013,08,17,14,12,363.50
2013,08,17,14,13,374.00
2013,08,17,14,14,370.20
2013,08,17,14,15,364.80
2013,08,17,14,16,356.50
2013,08,17,14,17,350.20
2013,08,17,14,18,346.00
2013,08,17,14,19,356.00
2013,08,17,14,20,377.80
2013,08,17,14,21,451.50
2013,08,17,14,22,438.10
2013,08,17,14,23,494.00
2013,08,17,14,24,494.00
2013,08,17,14,25,494.80
2013,08,17,14,26,486.00
2013,08,17,14,27,476.00
2013,08,17,14,28,521.70
2013,08,17,14,29,546.50
2013,08,17,14,30,589.00
2013,08,17,14,31,657.00
2013,08,17,14,32,579.00
2013,08,17,14,33,425.50
2013,08,17,14,34,417.00
2013,08,17,14,35,417.00
2013,08,17,14,36,417.00
2013,08,17,14,37,419.70
2013,08,17,14,38,418.80
2013,08,17,14,39,424.00
2013,08,17,14,40,424.00
2013,08,17,14,41,422.70
2013,08,17,14,42,422.00
2013,08,17,14,43,422.00
2013,08,17,14,44,350.60
2013,08,17,14,45,338.00
2013,08,17,14,46,338.00
2013,08,17,14,47,347.50
2013,08,17,14,48,364.20
2013,08,17,14,49,369.00
2013,08,17,14,50,369.00
2013,08,17,14,51,370.80
2013,08,17,14,52,386.50
2013,08,17,14,53,390.60
2013,08,17,14,54,405.30
2013,08,17,14,55,410.00
2013,08,17,14,56,410.00
2013,08,17,14,57,410.00
2013,08,17,14,58,442.70
2013,08,17,14,59,628.00
2013,08,17,15,00,552.00
2013,08,17,15,01,438.00
2013,08,17,15,02,438.00
2013,08,17,15,03,438.00
2013,08,17,15,04,438.00
2013,08,17,15,05,439.30
2013,08,17,15,06,469.00
2013,08,17,15,07,592.90
2013,08,17,15,08,808.00
2013,08,17,15,09,793.00
2013,08,17,15,10,793.00
2013,08,17,15,11,793.00
2013,08,17,15,12,793.00
2013,08,17,15,13,793.00
2013,08,17,15,14,665.60
2013,08,17,15,15,429.00
2013,08,17,15,16,429.00
2013,08,17,15,17,396.00
2013,08,17,15,18,387.50
2013,08,17,15,19,398.60
2013,08,17,15,20,459.00
2013,08,17,15,21,450.20
2013,08,17,15,22,434.00
2013,08,17,15,23,618.40
2013,08,17,15,24,726.00
2013,08,17,15,25,726.00
2013,08,17,15,26,741.90
2013,08,17,15,27,867.00
2013,08,17,15,28,837.00
2013,08,17,15,29,837.00
2013,08,17,15,30,879.90
2013,08,17,15,31,905.00
2013,08,17,15,32,603.20
2013,08,17,15,33,550.00
2013,08,17,15,34,550.00
2013,08,17,15,35,479.60
2013,08,17,15,36,416.60
2013,08,17,15,37,428.00
2013,08,17,15,38,410.00
2013,08,17,15,39,692.70
2013,08,17,15,40,694.90
2013,08,17,15,41,508.00
2013,08,17,15,42,508.00
2013,08,17,15,43,508.00
2013,08,17,15,44,508.00
2013,08,17,15,45,508.00
2013,08,17,15,46,626.10
2013,08,17,15,47,640.00
2013,08,17,15,48,660.50
2013,08,17,15,49,722.00
2013,08,17,15,50,722.00
2013,08,17,15,51,699.20
2013,08,17,15,52,677.20
2013,08,17,15,53,670.50
2013,08,17,15,54,670.00
2013,08,17,15,55,648.50
2013,08,17,15,56,611.70
2013,08,17,15,57,661.00
2013,08,17,15,58,656.00
2013,08,17,15,59,651.00
2013,08,17,16,00,650.00
2013,08,17,16,01,635.80
2013,08,17,16,02,603.20
2013,08,17,16,03,577.00
2013,08,17,16,04,621.80
2013,08,17,16,05,672.30
2013,08,17,16,06,684.20
2013,08,17,16,07,689.00
2013,08,17,16,08,689.00
2013,08,17,16,09,697.20
2013,08,17,16,10,722.00
2013,08,17,16,11,722.00
2013,08,17,16,12,722.00
2013,08,17,16,13,397.10
2013,08,17,16,14,223.20
2013,08,17,16,15,218.30
2013,08,17,16,16,271.00
2013,08,17,16,17,279.80
2013,08,17,16,18,281.00
2013,08,17,16,19,221.50
2013,08,17,16,20,193.30
2013,08,17,16,21,192.00
2013,08,17,16,22,234.70
2013,08,17,16,23,619.00
2013,08,17,16,24,489.90
2013,08,17,16,25,244.80
2013,08,17,16,26,246.20
2013,08,17,16,27,251.00
2013,08,17,16,28,221.50
2013,08,17,16,29,204.00
2013,08,17,16,30,204.00
2013,08,17,16,31,204.00
2013,08,17,16,32,253.30
2013,08,17,16,33,308.00
2013,08,17,16,34,308.00
2013,08,17,16,35,308.00
2013,08,17,16,36,308.00
2013,08,17,16,37,279.20
2013,08,17,16,38,193.00
2013,08,17,16,39,320.50
2013,08,17,16,40,448.00
2013,08,17,16,41,244.00
2013,08,17,16,42,172.40
2013,08,17,16,43,166.00
2013,08,17,16,44,190.70
2013,08,17,16,45,193.80
2013,08,17,16,46,199.10
2013,08,17,16,47,205.20
2013,08,17,16,48,236.50
2013,08,17,16,49,203.70
2013,08,17,16,50,233.80
2013,08,17,16,51,237.70
2013,08,17,16,52,204.90
2013,08,17,16,53,188.00
2013,08,17,16,54,220.20
2013,08,17,16,55,232.20
2013,08,17,16,56,179.60
2013,08,17,16,57,182.50
2013,08,17,16,58,255.00
2013,08,17,16,59,400.60
2013,08,17,17,00,569.00
2013,08,17,17,01,537.80
2013,08,17,17,02,563.00
2013,08,17,17,03,556.10
2013,08,17,17,04,554.30
2013,08,17,17,05,556.50
2013,08,17,17,06,556.40
2013,08,17,17,07,563.50
2013,08,17,17,08,562.30
2013,08,17,17,09,583.00
2013,08,17,17,10,620.50
2013,08,17,17,11,578.00
2013,08,17,17,12,578.00
2013,08,17,17,13,537.20
2013,08,17,17,14,476.00
2013,08,17,17,15,570.20
2013,08,17,17,16,633.00
2013,08,17,17,17,598.10
2013,08,17,17,18,594.00
2013,08,17,17,19,594.00
2013,08,17,17,20,594.00
2013,08,17,17,21,531.50
2013,08,17,17,22,445.60
2013,08,17,17,23,412.50
2013,08,17,17,24,406.00
2013,08,17,17,25,158.60
2013,08,17,17,26,162.00
2013,08,17,17,27,162.00
2013,08,17,17,28,162.00
2013,08,17,17,29,162.00
2013,08,17,17,30,153.80
2013,08,17,17,31,215.80
2013,08,17,17,32,223.00
2013,08,17,17,33,287.50
2013,08,17,17,34,464.90
2013,08,17,17,35,453.50
2013,08,17,17,36,442.00
2013,08,17,17,37,428.20
2013,08,17,17,38,411.50
2013,08,17,17,39,396.30
2013,08,17,17,40,389.20
2013,08,17,17,41,387.00
2013,08,17,17,42,388.50
2013,08,17,17,43,392.50
2013,08,17,17,44,394.00
2013,08,17,17,45,388.90
2013,08,17,17,46,386.20
2013,08,17,17,47,369.00
2013,08,17,17,48,362.50
2013,08,17,17,49,358.50
2013,08,17,17,50,354.30
2013,08,17,17,51,350.60
2013,08,17,17,52,346.60
2013,08,17,17,53,347.00
2013,08,17,17,54,354.60
2013,08,17,17,55,359.00
2013,08,17,17,56,359.00
2013,08,17,17,57,362.00
2013,08,17,17,58,365.50
2013,08,17,17,59,370.50
2013,08,17,18,00,378.80
2013,08,17,18,01,367.80
2013,08,17,18,02,322.00
2013,08,17,18,03,283.00
2013,08,17,18,04,270.60
2013,08,17,18,05,285.00
2013,08,17,18,06,353.90
2013,08,17,18,07,316.60
2013,08,17,18,08,311.00
2013,08,17,18,09,279.80
2013,08,17,18,10,292.00
2013,08,17,18,11,336.80
2013,08,17,18,12,364.40
2013,08,17,18,13,366.00
2013,08,17,18,14,282.50
2013,08,17,18,15,282.80
2013,08,17,18,16,287.80
2013,08,17,18,17,298.50
2013,08,17,18,18,270.40
2013,08,17,18,19,161.20
2013,08,17,18,20,137.00
2013,08,17,18,21,136.30
2013,08,17,18,22,132.00
2013,08,17,18,23,201.60
2013,08,17,18,24,304.90
2013,08,17,18,25,285.10
2013,08,17,18,26,295.00
2013,08,17,18,27,302.00
2013,08,17,18,28,83.00
2013,08,17,18,29,83.00
2013,08,17,18,30,83.00
2013,08,17,18,31,83.00
2013,08,17,18,32,83.00
2013,08,17,18,33,83.00
2013,08,17,18,34,83.00
2013,08,17,18,35,83.00
2013,08,17,18,36,83.00
2013,08,17,18,37,83.00
